Weather History for Novato, CA

Change the Weather History Date:

Friday, November 16, 2012

  Actual Average (KAPC) Record (KAPC)
Temperature  
Mean Temperature 54 °F 51 °F  
Max Temperature 60 °F 63 °F 77 °F (2008)
Min Temperature 48 °F 39 °F 31 °F (2009)
Degree Days  
Heating Degree Days 11    
Month to date heating degree days  
Since 1 July heating degree days  
Cooling Degree Days 0    
Month to date cooling degree days  
Year to date cooling degree days  
Growing Degree Days 4 (Base 50)    
Moisture  
Dew Point 54 °F    
Average Humidity 98    
Maximum Humidity 100    
Minimum Humidity 77    
Precipitation  
Precipitation 0.25 in - 1.52 in (1930)
Month to date precipitation  
Year to date precipitation  
Since 1 July precipitation  
Sea Level Pressure  
Sea Level Pressure 29.96 in    
Wind  
Wind Speed 3 mph (SSE)    
Max Wind Speed 8 mph    
Max Gust Speed -    
Visibility 5 miles    
Events Rain    
T = Trace of Precipitation, MM = Missing Value Source: NWS Daily Summary

Daily Weather History Graph

Daily Weather History Graph

Search for Another Location

Airport:

Trip Planner

Search our weather history database for the weather conditions in past years. The results will help you decide how hot, cold, wet, or windy it might be!

Date:

Astronomy

Nov. 16, 2012 Rise Set
Actual Time 6:52 AM PST 4:56 PM PST
Civil Twilight 6:24 AM PST 5:25 PM PST
Nautical Twilight 5:52 AM PST 5:57 PM PST
Astronomical Twilight 5:21 AM PST 6:28 PM PST
Moon 9:51 AM PST 8:03 PM PST
Length of Visible Light 11h 00m
Length of Day
10h 03m
Waxing Crescent, 12% of the Moon is Illuminated
Nov 16
Waxing Crescent
Nov 20
First Quarter
Nov 28
Full
Dec 6
Last Quarter
Dec 13
New

Hourly Weather History & Observations

Time (PST) Temp. Dew Point Humidity Pressure Visibility Wind Dir Wind Speed Gust Speed Precip Events Conditions
12:15 AM 50.0 °F 50.0 °F 100% 30.01 in 10.0 mi Calm Calm - N/A   Partly Cloudy
12:35 AM 50.0 °F 50.0 °F 100% 30.01 in 10.0 mi South 6.9 mph - N/A   Clear
12:55 AM 50.0 °F 50.0 °F 100% 30.00 in 10.0 mi South 8.1 mph - N/A   Clear
1:15 AM 50.0 °F 50.0 °F 100% 30.00 in 10.0 mi Calm Calm - N/A   Clear
1:35 AM 48.2 °F 48.2 °F 100% 30.00 in 10.0 mi Calm Calm - N/A   Clear
1:55 AM 50.0 °F 50.0 °F 100% 30.00 in 10.0 mi Calm Calm - N/A   Clear
2:15 AM 50.0 °F 50.0 °F 100% 30.00 in 10.0 mi South 3.5 mph - N/A   Clear
2:35 AM 48.2 °F 48.2 °F 100% 29.99 in 10.0 mi WSW 3.5 mph - N/A   Partly Cloudy
2:55 AM 50.0 °F 50.0 °F 100% 29.99 in 10.0 mi South 4.6 mph - N/A   Clear
3:15 AM 50.0 °F 50.0 °F 100% 29.98 in 10.0 mi SSW 5.8 mph - N/A   Partly Cloudy
3:35 AM 50.0 °F 50.0 °F 100% 29.98 in 10.0 mi Calm Calm - N/A   Partly Cloudy
3:55 AM 48.2 °F 48.2 °F 100% 29.97 in 9.0 mi Calm Calm - N/A   Mostly Cloudy
4:15 AM 50.0 °F 50.0 °F 100% 29.97 in 10.0 mi Calm Calm - N/A   Overcast
4:35 AM 51.8 °F 51.8 °F 100% 29.98 in 5.0 mi South 4.6 mph - N/A   Overcast
4:55 AM 51.8 °F 51.8 °F 100% 29.98 in 8.0 mi SW 4.6 mph - N/A Rain Light Rain
5:15 AM 53.6 °F 53.6 °F 100% 29.98 in 10.0 mi Calm Calm - N/A   Overcast
5:35 AM 53.6 °F 53.6 °F 100% 29.97 in 10.0 mi Calm Calm - N/A   Mostly Cloudy
5:55 AM 50.0 °F 50.0 °F 100% 29.97 in 8.0 mi Calm Calm - N/A   Mostly Cloudy
6:15 AM 50.0 °F 50.0 °F 100% 29.97 in 8.0 mi Calm Calm - N/A   Overcast
6:35 AM 51.8 °F 51.8 °F 100% 29.97 in 9.0 mi South 4.6 mph - N/A   Overcast
6:55 AM 51.8 °F 51.8 °F 100% 29.98 in 3.0 mi Calm Calm - N/A Rain Light Rain
7:15 AM 51.8 °F 51.8 °F 100% 29.98 in 4.0 mi SSW 3.5 mph - N/A Rain Light Rain
7:35 AM 53.6 °F 53.6 °F 100% 29.99 in 5.0 mi South 3.5 mph - N/A Rain Light Rain
7:55 AM 53.6 °F 53.6 °F 100% 29.99 in 4.0 mi SW 5.8 mph - 0.01 in Rain Light Rain
8:15 AM 53.6 °F 53.6 °F 100% 30.00 in 2.5 mi SSW 5.8 mph - 0.01 in Rain Light Rain
8:35 AM 53.6 °F 53.6 °F 100% 30.00 in 5.0 mi SSE 3.5 mph - 0.01 in Rain Light Rain
8:55 AM 53.6 °F 53.6 °F 100% 30.00 in 5.0 mi Calm Calm - 0.01 in Rain Light Rain
9:15 AM 53.6 °F 53.6 °F 100% 30.00 in 7.0 mi Calm Calm - N/A   Overcast
9:35 AM 53.6 °F 53.6 °F 100% 30.01 in 5.0 mi Calm Calm - N/A Rain Light Rain
9:55 AM 55.4 °F 55.4 °F 100% 30.01 in 4.0 mi SSW 3.5 mph - N/A   Overcast
10:15 AM 55.4 °F 55.4 °F 100% 30.01 in 3.0 mi Calm Calm - N/A   Overcast
10:35 AM 55.4 °F 55.4 °F 100% 30.00 in 5.0 mi Calm Calm - N/A   Overcast
10:55 AM 55.4 °F 55.4 °F 100% 30.00 in 5.0 mi ESE 3.5 mph - N/A   Overcast
11:15 AM 57.2 °F 55.4 °F 94% 29.99 in 6.0 mi Calm Calm - N/A   Overcast
11:35 AM 57.2 °F 55.4 °F 94% 29.99 in 7.0 mi Calm Calm - N/A   Overcast
11:55 AM 59.0 °F 55.4 °F 88% 29.98 in 8.0 mi East 6.9 mph - N/A   Overcast
12:15 PM 59.0 °F 53.6 °F 82% 29.98 in 5.0 mi SE 6.9 mph - N/A   Haze
12:35 PM 59.0 °F 55.4 °F 88% 29.96 in 5.0 mi SE 4.6 mph - N/A   Overcast
12:55 PM 59.0 °F 51.8 °F 77% 29.96 in 5.0 mi East 5.8 mph - N/A   Haze
1:15 PM 59.0 °F 51.8 °F 77% 29.95 in 6.0 mi ESE 6.9 mph - N/A   Haze
1:35 PM 60.8 °F 53.6 °F 77% 29.94 in 5.0 mi ESE 8.1 mph - N/A   Haze
1:55 PM 59.0 °F 53.6 °F 82% 29.94 in 5.0 mi SSE 4.6 mph - N/A   Haze
2:15 PM 59.0 °F 53.6 °F 82% 29.94 in 5.0 mi SSE 5.8 mph - N/A   Haze
2:35 PM 59.0 °F 55.4 °F 88% 29.94 in 5.0 mi South 3.5 mph - N/A   Haze
2:55 PM 57.2 °F 57.2 °F 100% 29.94 in 1.8 mi SE 4.6 mph - N/A Rain Light Rain
3:15 PM 57.2 °F 57.2 °F 100% 29.94 in 1.2 mi ESE 4.6 mph - N/A Rain Light Rain
3:35 PM 55.4 °F 55.4 °F 100% 29.94 in 0.8 mi SE 5.8 mph - N/A Rain Light Rain
3:55 PM 55.4 °F 55.4 °F 100% 29.94 in 0.5 mi ESE 3.5 mph - 0.01 in Rain Light Rain
4:15 PM 55.4 °F 55.4 °F 100% 29.93 in 0.5 mi Calm Calm - N/A Rain Light Rain
4:35 PM 55.4 °F 55.4 °F 100% 29.93 in 1.2 mi Calm Calm - N/A Rain Light Rain
4:55 PM 55.4 °F 55.4 °F 100% 29.93 in 1.2 mi SW 3.5 mph - 0.01 in Rain Light Rain
5:15 PM 55.4 °F 55.4 °F 100% 29.92 in 2.0 mi South 3.5 mph - N/A Rain Light Rain
5:35 PM 55.4 °F 55.4 °F 100% 29.92 in 3.0 mi Calm Calm - N/A Rain Light Rain
5:55 PM 55.4 °F 55.4 °F 100% 29.92 in 2.0 mi Calm Calm - 0.02 in Rain Light Rain
6:15 PM 55.4 °F 55.4 °F 100% 29.92 in 3.0 mi Calm Calm - N/A Rain Light Rain
6:35 PM 55.4 °F 55.4 °F 100% 29.91 in 2.5 mi ESE 3.5 mph - N/A Rain Light Rain
6:55 PM 55.4 °F 55.4 °F 100% 29.91 in 3.0 mi Calm Calm - 0.01 in Rain Light Rain
7:15 PM 55.4 °F 55.4 °F 100% 29.91 in 3.0 mi Calm Calm - N/A Rain Light Rain
7:55 PM 55.4 °F 55.4 °F 100% 29.90 in 2.5 mi Calm Calm - 0.02 in Rain Light Rain
8:15 PM 55.4 °F 55.4 °F 100% 29.90 in 2.5 mi Calm Calm - 0.01 in Rain Light Rain
8:35 PM 55.4 °F 55.4 °F 100% 29.90 in 1.5 mi SE 3.5 mph - 0.02 in Rain Light Rain
8:55 PM 55.4 °F 55.4 °F 100% 29.90 in 2.0 mi SE 3.5 mph - 0.03 in Rain Light Rain
9:15 PM 55.4 °F 55.4 °F 100% 29.90 in 1.5 mi Calm Calm - 0.01 in Rain Light Rain
9:35 PM 55.4 °F 55.4 °F 100% 29.91 in 1.5 mi Calm Calm - 0.02 in Rain Light Rain
9:55 PM 55.4 °F 55.4 °F 100% 29.90 in 1.2 mi Calm Calm - 0.07 in Rain Light Rain
10:15 PM 55.4 °F 55.4 °F 100% 29.90 in 1.2 mi ESE 6.9 mph - 0.01 in Rain Light Rain
10:35 PM 55.4 °F 55.4 °F 100% 29.89 in 1.5 mi SE 5.8 mph - 0.02 in Rain Light Rain
10:55 PM 55.4 °F 55.4 °F 100% 29.89 in 1.5 mi South 8.1 mph - 0.02 in Rain Light Rain
11:15 PM 55.4 °F 55.4 °F 100% 29.89 in 1.5 mi South 4.6 mph - N/A Rain Light Rain
11:35 PM 55.4 °F 55.4 °F 100% 29.89 in 1.5 mi SSE 5.8 mph - 0.01 in Rain Light Rain
11:55 PM 53.6 °F 53.6 °F 100% 29.88 in 1.0 mi SE 3.5 mph - 0.04 in Rain Light Rain